Location: R�o Tuerlos
(40.6704°N, 4.4622°W)
Time: 04:04:53
(UTC+00:00)

Resurs 1-4 Rocket - Pass Details

Date: 07 June 2020
Orbit: 800 x 813 km, 98.6° (Epoch: 14 July)

Event Time Altitude Azimuth Distance (km) Brightness Sun altitude
Rises 03:16:19 0° 357° (N) 3,336 6.0 -14.1°
Reaches altitude 10° 03:19:17 10° 341° (NNW) 2,403 4.9 -13.7°
Maximum altitude 03:22:53 19° 298° (WNW) 1,855 3.8 -13.2°
Enters shadow 03:26:00 12° 259° (WSW) 2,273 4.0 -12.8°
